Race Results for
Cal Aggie Criterium
Davis, CA
(Event Information)
View By:
Criterium on 01/31/2010

Note: Ranking points are NOT upgrade points. An explanation of ranking points can be found here.


Men - Cat 1/2/3

 Place Points NameCity, StateTime USAC #BibTeam
1248.67Joe Iannarelli   Vacaville, CA00:00:00.00 195783  16 Team Clif Bar
2252.84Brandon Trafton   Sacramento, CA00:00:00.00 240033  27 California Giant Berry Farms/s
3257.00Randy Bramblett   San Francisco, CA00:00:00.00 187194  38 Williams Cycling
4261.17Collin Samaan   Fair Oaks, CA00:00:00.00 196233  22 Unattached
5Chad GERLACH   00:00:00.00  44 Health Is Wealth
6269.50Joshua Carling   Rancho Cordova, CA00:00:00.00 234584  Pacific State Bank Cycling Tea
7273.66Frank Marrs   Atlanta, GA00:00:00.00 272691  18 Davis Bike Club
8277.83Jan Weissenberger   San Francisco, CA00:00:00.00 186678  36 SAFEWAY/Bicycles Plus/PureRed Creative
9281.99Nicholas Oliver   El Dorado Hills, CA00:00:00.00 271541  19 Wells Fargo Racing
10286.16Peter Graf   Sacramento, CA00:00:00.00 218511  12 American Lung Association Cycl
11290.32Phillip Snodgrass   Dallas, TX00:00:00.00 266817  24 Wells Fargo Racing
12294.49Michael Cordova   Chester, CA00:00:00.00 207547  Chico Corsa
13298.65Maxim Jenkins   Citrus Heights, CA00:00:00.00 195652  49 United Health Care
14302.82Carmi Schulman   Seattle, WA00:00:00.00 200292  23 Sportgenic/squadra Ovest
15306.98Keith Hillier   Millbrae, CA00:00:00.00 276108  15 Davis Bike Club
16311.15Nathan Freed   Tahoe City, CA00:00:00.00 86484  10 Team Clif Bar
17315.31Judd Van Sickle   Sacramento, CA00:00:00.00 127052  30 Rocknasium
18319.48Sergei Badeka   Palo Alto, CA00:00:00.00 118797  Third Pillar Racing
19323.64Josh Rennie   Reno, NV00:00:00.00 251736  48 Team Clif Bar Cycling
20327.81Michael Jasinski   Rocklin, CA00:00:00.00 269476  17 Chico Corsa Cycling Club
21331.97Michael Egan   West Sacrametno, CA00:00:00.00 124893  52 Sacramento Golden Wheelmen
22336.14Michael O'Rourke   Auburn, CA00:00:00.00 204496  20 SAFEWAY/Bicycles Plus/PureRed Creative
23340.30Robert Pasco   Belmont, CA00:00:00.00 136970  39 SAFEWAY/Bicycles Plus/PureRed Creative
24344.47Riley Oneal (1 - Cat2)   San Diego, CA00:00:00.00 192343  47 University Of California-davis
25348.64Yacov Spivak (2 - Cat2)   Fair Oaks, CA00:00:00.00 241816  56 Chico Corsa Cycling Club
26352.80Jeffrey Galland   Paradise, CA00:00:00.00 127804  11 Chico Corsa/sierra Nevada
27356.97Michael Jacques   Portola Valley, CA00:00:00.00 72022  45 Team Cliff Bar
28361.13Joshua Bullock   Sacramento, CA00:00:00.00 153414  Chico Corsa/sierra Nevada
29365.30Andres Gil   Stockton, CA00:00:00.00 171882  42 Delta Velo
30369.46Scott Leland   Reno, NV00:00:00.00 179817  57 Unattached
31373.63Chris Stastny   Vacaville, CA00:00:00.00 249743  25 California Giant Berry Farms/s
32377.79Russell White   Lafayette, CA00:00:00.00 236024  28 Davis Bike Club
33381.96AJ Snovel   Sacramento, CA00:00:00.00 272559  32 Davis Bike Club
34386.12Daniel Bryant   Carmichael, CA00:00:00.00 195929  50 Folsom Bike
35390.29Gregory Gambetta   Sacramento, CA00:00:00.00 212916  41 Folsom Bike
36394.45Kyle Glerum   Burlingame, CA00:00:00.00 195470  35 SAFEWAY/Bicycles Plus/PureRed Creative
37398.62Samuel Bolster (1 - Cat3)   Camino, CA00:00:00.00 258704  Team Kinetic Cycles
38402.78Robert Nichols   Lockeford, CA00:00:00.00 255632  53 Pacific State Bank Cycling Tea
39406.95James Herzman   Truckee, CA00:00:00.00 207922  13 Kinetic Cycles/gbi
40411.11Gregory White   Lafayette, CA00:00:00.00 246669  29 Davis Bike Club
41415.28Rand Miller (1 - Cat1)   San Francisco, CA00:00:00.00 182990  46 Webcor/alto Velo
42419.44Nathanael Christensen   Clements, CA00:00:00.00 239919  55 Delta Velo
43423.61Nick Theobald   Burlingame, CA00:00:00.00 35297  34 SAFEWAY/Bicycles Plus/PureRed Creative
44427.77James Heth   Upland, IN00:00:00.00 265351  14 Redding Velo
45431.94Jeff Poulsen   Arnold, CA00:00:00.00 28533  37 SAFEWAY/Bicycles Plus/PureRed Creative
46436.11Mark Walsh   Sacramento, CA00:00:00.00 46040  54 Berkeley Bicycle Club
47440.27Patrick McClurg   Citrus Heights, CA00:00:00.00 48984  59 Team Bicycles Plus
DNSGivargis Betoshana   Ripon, CA00:00:00.00 55276  Fun Sport Bikes Cycling Team
DNSKurt Bickel   Upland, CA00:00:00.00 219611  Joes Pro Bikes
DNSTony Reid   Sacramento, CA00:00:00.00 29458  21 SAFEWAY/Bicycles Plus/PureRed Creative
DNSBenjamin Dodge   San Jose, CA00:00:00.00 178595  SJBC
DNSSam Bassetti   San Geronimo, CA00:00:00.00 237712  Team Swift
DNPCody Tapley   Citrus Heights, CA00:00:00.00 234610  26 Davis Bike Club
DNPThomas Morris (Cat3)   Roseville, CA00:00:00.00 25151  124 Fightin' Bobas
DNPJoseph Christensen (Cat3)   Clements, CA00:00:00.00 240832  51 Junior Elite Talent Squad
DNPVincent Gee   Sacramento, CA00:00:00.00 13001  126 Mellow Johnies
DNPJake Mestre   Reno, NV00:00:00.00 205653  31 Reno Wheelmen
DNPDennis Baker   Sacramento, CA00:00:00.00 255279  60 Sacramento Golden Wheelmen
DNPMark Trujillo   Reno00:00:00.00 212418  128 Team Clover
DNPJason Brown   Lodi, CA00:00:00.00 53115  58 VOS-Cycles Gladiator
DNPMatthew Ream   Verdi, NV00:00:00.00 211441  146 VOS-Cycles Gladiator
DNPSean MCDONALD   00:00:00.00  33 Unattached
DNPDavid Acri   San Francisco00:00:00.00 233803  127 Squadra Ovest
DNPBubba Melcher   Reno, NV00:00:00.00 23961  125 Team Clover

Men - Cat 1/2/3 - Master - 35-99

 Place Points NameCity, StateTime USAC #BibTeam
1Chad GERLACH   00:00:00.00  152 Health Is Wealth
2282.65Andres Gil   Stockton, CA00:00:00.00 171882  149 Delta Velo
3287.56Nick Theobald   Burlingame, CA00:00:00.00 35297  136 SAFEWAY/Bicycles Plus/PureRed Creative
4292.47Matthew Ream   Verdi, NV00:00:00.00 211441  146 VOS-Cycles Gladiator
5297.38Jason Boynton   Yuba City, CA00:00:00.00 4526  102 Rocknasium
6302.29Patrick McClurg   Citrus Heights, CA00:00:00.00 48984  144 Team Bicycles Plus
7307.20Jan Weissenberger   San Francisco, CA00:00:00.00 186678  138 SAFEWAY/Bicycles Plus/PureRed Creative
8UNKNOWN RIDER   00:00:00.00  125 -------
9317.02Daniel Prater   Davis, CA00:00:00.00 28612  140 Some Guys Cycling
10321.93Nabil Samaan   Fair Oaks, CA00:00:00.00 177518  132 Unattached
11326.84Norman Zellers   El Segundo, CA00:00:00.00 140740  145 VOS-Cycles Gladiator
12331.75Jason Brown   Lodi, CA00:00:00.00 53115  103 Kinetic Cycles/gbi
13336.66Rodney Spradlin   El Dorado Hills, CA00:00:00.00 122266  121 Fci Commercial Capital
14341.58Scott Leland   Reno, NV00:00:00.00 179817  134 Unattached
15346.49Rob Cady   Elk Grove, CA00:00:00.00 49774  105 Zenn Racing Team
16351.40Judd Van Sickle   Sacramento, CA00:00:00.00 127052  122 Rocknasium
17356.31Jeffrey Galland   Paradise, CA00:00:00.00 127804  107 Chico Corsa/sierra Nevada
18361.22Aaron Hunter   Santa Cruz, CA00:00:00.00 215194  110 Kinetic Cycles/gbi
19366.13Dennis Baker   Sacramento, CA00:00:00.00 255279  143 Sacramento Golden Wheelmen
20371.04Mark Walsh   Sacramento, CA00:00:00.00 46040  123 Berkeley Bicycle Club
21375.95Chris Ott   San Jose, CA00:00:00.00 26920  130 Zenn Racing Team
22UNKNOWN RIDER   00:00:00.00  128 -------
23385.77Spencer Kenner   Davis, CA00:00:00.00 86651  142 Armstrong & Associates / Fci C
24UNKNOWN RIDER   00:00:00.00  127 -------
25395.59James Herzman   Truckee, CA00:00:00.00 207922  108 Kinetic Cycles/gbi
26Steve MCCAW   00:00:00.00  151 Unattached
27405.41Robert Pasco   Belmont, CA00:00:00.00 136970  141 SAFEWAY/Bicycles Plus/PureRed Creative
28410.32Scott Fonseca   Fair Oaks, CA00:00:00.00 204715  106 Zenn Racing Team
29415.24Chris Dawson   Sacramento, CA00:00:00.00 224241  131 Hot Italian/River City Racing
30420.15Tony Reid   Sacramento, CA00:00:00.00 29458  117 SAFEWAY/Bicycles Plus/PureRed Creative
31425.06Michael O'Rourke   Auburn, CA00:00:00.00 204496  115 SAFEWAY/Bicycles Plus/PureRed Creative
32429.97Robert Nichols   Lockeford, CA00:00:00.00 255632  114 Williams Cycling
33434.88Daniel Bryant   Carmichael, CA00:00:00.00 195929  150 Folsom Bike
34439.79Rich Mader   Sacramento, CA00:00:00.00 222996  112 Zenn Racing Team
35444.70Brian Hitchman   Folsom, CA00:00:00.00 48419  109 Team Bicycles Plus/sierra Neva
36UNKNOWN RIDER   00:00:00.00  33 -------
37454.52Jay Kinney   Placerville, CA00:00:00.00 125352  111 Unattached
38459.43Gregory Gambetta   Sacramento, CA00:00:00.00 212916  148 Folsom Bike
39UNKNOWN RIDER   00:00:00.00  126 -------
40469.25Dave Kause (1 - Cat2)   Sacramento, CA00:00:00.00 175157  133 Team Kinetic Cycles
41474.16Mark Robertson   Oakland, CA00:00:00.00 237380  118 Taleo Racing
42479.07Jeff Poulsen   Arnold, CA00:00:00.00 28533  139 SAFEWAY/Bicycles Plus/Pure Red Creative
43483.98Jess Raphael   Napa, CA00:00:00.00 221460  147 SAFEWAY/Bicycles Plus/PureRed Creative
44488.90Tracy Muegge   Gold River, CA00:00:00.00 51637  113 Team Bicycle Plus/sierra Nevad
45493.81Jason Snovel   Sacramento, CA00:00:00.00 268577  120 Rocknasium
DNSVance Russell   Davis, CA00:00:00.00 157646  119 Davis Bike Club
DNSKurt Bickel   Upland, CA00:00:00.00 219611  100 Joes Pro Bikes
DNSPeter Piepul (Cat3)   San Jose, CA00:00:00.00 28118  116 SJBC
DNPKyle Glerum   Burlingame, CA00:00:00.00 195470  137 SAFEWAY/Bicycles Plus/PureRed Creative
DNPDemian Bigelow   Martinez, CA00:00:00.00 41709  101 Taleo Racing
DNPRyan Hata   Sacramento, CA00:00:00.00 368  135 Unattached
DNPScott Butler   Columbia, MO00:00:00.00 106701  104 Williams Cycling

Men - Cat 3

 Place Points NameCity, StateTime USAC #BibTeam
1371.09Christopher Dudley   Reno, NV00:00:00.00 285988  216 Nevada Cycling
2375.64Steven Larsen   Placerville00:00:00.00 203934  223 Rio Strada Racing
3380.19Riley Oneal   San Diego, CA00:00:00.00 192343  208 UC Davis
4384.74Andrew Lancashire   Elk Grove, CA00:00:00.00 218734  231 Zenn Racing Team
5389.29Joshua Bullock   Sacramento, CA00:00:00.00 153414  203 Chico Corsa/sierra Nevada
6393.84Angus MacDonald   Vacaville, CA00:00:00.00 140048  221 Precision Bicycles/team Precis
7398.39David Acri   San Francisco00:00:00.00 233803  220 Sportgenic/squadra Ovest
8Sean MCDONALD   00:00:00.00  227 Williams Cycling
9407.50Benjamin Dodge   San Jose, CA00:00:00.00 178595  205 SJBC
10412.05Scott Peifer   Granite Bay, CA00:00:00.00 265877  230 Team Bicycles Plus/sierra Neva
11416.60Nabil Samaan   Fair Oaks, CA00:00:00.00 177518  226 Unattached
12421.15AJ Snovel   Sacramento, CA00:00:00.00 272559  211 Davis Bike Club
13425.70Peter Williams   Sacramento, CA00:00:00.00 219604  218 Emc 2/felt Bicycles
14430.25Roger Hogan   Fresno, CA00:00:00.00 285192  207 California Giant Cycling
15434.80Scott Butler   Columbia, MO00:00:00.00 106701  204 Williams Cycling
16439.35Samuel Bolster   Camino, CA00:00:00.00 258704  202 Team Kinetic Cycles
17443.90James Heth   Upland, IN00:00:00.00 265351  206 Redding Velo
18448.45Mark Hockridge   Granite Bay, CA00:00:00.00 269690  219 Davis Bike Club
19453.00Mark Robertson   Oakland, CA00:00:00.00 237380  209 Taleo Racing
20457.55Scot Ferguson   Reno, NV00:00:00.00 195008  222 Unattached
21462.10Thomas Morris   Roseville, CA00:00:00.00 25151  214 Fightin' Bobas
22466.65Jason Allen   Carmichael, CA00:00:00.00 202003  215 Hot Italian/River City Racing
23471.20Brandon Hill   Jensen Beach, FL00:00:00.00 238904  228 Hot Italian/River City Racing
24475.75Jonathan Teeter   Guerneville, CA00:00:00.00 291414  229 Unattached
25480.31Jake Mestre   Reno, NV00:00:00.00 205653  225 Reno Wheelmen
26484.86Cody Tapley   Citrus Heights, CA00:00:00.00 234610  212 Davis Bike Club
27489.41Alexander Walters   Los Angeles, CA00:00:00.00 257445  213 University Of California-davis
28Paul MORRIS   00:00:00.00  217 Nevada Cycling
DNSGivargis Betoshana   Ripon, CA00:00:00.00 55276  200 Fun Sport Bikes Cycling Team
DNSChris Dawson   Sacramento, CA00:00:00.00 224241  224 Hot Italian/River City Racing
DNSJason Snovel   Sacramento, CA00:00:00.00 268577  210 Rocknasium
DNSDemian Bigelow   Martinez, CA00:00:00.00 41709  201 Taleo Racing

Men - Cat 4

 Place Points NameCity, StateTime USAC #BibTeam
1409.57Anthony Ferretti   Oroville, CA00:00:00.00 283185  322 Chico Corsa
2413.25Brandon Meadows   Sacramento, CA00:00:00.00 250736  334 Rio Strada Racing
3416.93Anthony Rodriguez   Davis, CA00:00:00.00 276148  340 Davis Bike Club
4420.62fergus tanaka   San Francisco, CA00:00:00.00 304367  346 Freewheel
5424.30Griffin Stone   Clovis, CA00:00:00.00 234161  364 Stevens Bicycle Racing
6427.98Kevin Tufts   Cameron Park, CA00:00:00.00 243434  350 Bicycle Planet
7431.66Ryan Odell   Sacramento, CA00:00:00.00 288200  336 Davis Bike Club
8435.35Greg Tripoli   Hanford, CA00:00:00.00 281420  349 Rubber Soul/csc Racing Team
9439.03Tim Fehon   San Francisco, CA00:00:00.00 263093  321 Team Norcal Bikesport
10442.71Gary Thompson   Davis, CA00:00:00.00 286875  347 Unattached
11446.39Anthony ODell   Orangevale, CA00:00:00.00 287267  337 Bicycle Planet
12450.07James Williams   Arcata, CA00:00:00.00 284329  355 Unattached
13453.76Rob Brandt   Ennis, MT00:00:00.00 298803  305 Kryki Sports
14457.44Garrett Hankins   Carmichael, CA00:00:00.00 298571  327 Team City
15461.12Joshua Houssiere   Fresno, CA00:00:00.00 66056  365 Stevens Bicycle Racing
16464.80James Phillips   Santa Cruz, CA00:00:00.00 220094  368 UCSC
17468.49James Tower   Davis, CA00:00:00.00 286847  348 UC Davis
18472.17Musa Zaid   San Francisco , CA00:00:00.00 204256  356 University Of California - Dav
19475.85Douglas Rowland   Davis, CA00:00:00.00 295966  341 Davis Bike Club
20479.53Michael Claudio   West Sacramento, CA00:00:00.00 248052  310 Ikon Cycles Race Team
21483.22Robby Liebherr   Reno, NV00:00:00.00 237449  330 Nevada Cycling
22486.90Eric Clauss   San Francisco, CA00:00:00.00 198040  311 Squadra Ovest Cycling
23490.58Chris Hopkins   Sacramento, CA00:00:00.00 280762  358 Unattached
24494.26Michael Stoner   Tucson, AZ00:00:00.00 287280  345 Davis Bike Club
25497.94Stanley Goto   Petaluma, CA00:00:00.00 254829  325 All Sport Team Swift
26501.63Thomas Luttrell   San Francisco, CA00:00:00.00 235966  331 Divine Electric Norcal
27505.31Whitney DeBoice   Rancho Cordova, CA00:00:00.00 209192  366 Team City
28508.99Matthew Davis   Reno, NV00:00:00.00 237845  316 Unattached
29512.67Ryan Oakes   Chico, CA00:00:00.00 258824  335 Bicycle Planet
30516.36Bryan Warhold   Sacramento, CA00:00:00.00 148346  352 Ikon Cycles Race Team
31520.04Chris Dufour   Pleasanton, CA00:00:00.00 302616  319 Taleo Racing
32523.72K Scott Davis   Palo Alto, CA00:00:00.00 257793  317 Quadcycles
33527.40Daniel Cuneo   Davis, CA00:00:00.00 287715  315 Davis Bike Club
34531.08Jeffrey Palileo   American Canyon, CA00:00:00.00 224717  363 Sportgenic/squadra Ovest
35534.77Stephen Wassather   Santa Cruz, CA00:00:00.00 269058  367 Rio Strada Racing
36538.45Darren Chamberlain   Salinas, CA00:00:00.00 204682  309 Taleo Racing
37542.13Aaron Phillips   Brentwood, CA00:00:00.00 273263  339 Williams Cycling
38545.81Robert Fuller   Lodi, CA00:00:00.00 12523  324 Williams Cycling-delta Velo
39549.50Benjamin Barry   Arcata, CA00:00:00.00 289212  301 Beer
40553.18Erim Taser   Lodi, CA00:00:00.00 205116  359 Delta Velo
41556.86Johnny Mullane   Watsonville, CA00:00:00.00 281204  361 California Giant Cycling
42560.54Bennie Weber   Lodi, CA00:00:00.00 203593  354 Psb/ Anderson Homes
43564.22Jason Hardi   Citrus Heights, CA00:00:00.00 287921  328 Vapor Racing
44567.91Kalman Zeiger   San Francisco, CA00:00:00.00 237651  357 Godspeed Courier
45571.59Mitch Boehs   Livingston, CA00:00:00.00 237309  360 Stanislaus/merlock Velo
46575.27Patrick Piccolo   Oakland , CA00:00:00.00 263815  362 Team Freewheel Bike Shop
47578.95Charlie Brummitt   Davis, CA00:00:00.00 239759  369 Brazen Dropouts/cronometro
48582.64Nathanael Dunn   Fair Oaks, CA00:00:00.00 290357  320 Rio Strada Racing
49586.32Michael Painter   Chico Ca00:00:00.00 289184  338 Chico Corsa Cycling Club
50590.00Jeffrey Griffo   Homewood, CA00:00:00.00 180137  326 Truckee Bicycle Team
DNFTimothy Bisson   San Jose, CA00:00:00.00 221552  304 BBC
DNFBenjamin Barry   Arcata, CA00:00:00.00 289212  302 Becher+
DNFMatt Tufts   Placerville, CA00:00:00.00 240212  351 Bicycle Planet
DNFCharlie Brummitt   Davis, CA00:00:00.00 239759  306 Brazen Dropouts
DNFJoshua Cooperman   Davis, CA00:00:00.00 160989  313 Davis Bicycle Club
DNFIan McPherson   Davis, CA00:00:00.00 243655  333 Davis Bike Club
DNFJeffrey Weaver   Sacramento, CA00:00:00.00 290926  353 Davis Bike Club
DNFJames Cotta   Lodi, CA00:00:00.00 282175  314 Delta Velo/ Williams Cycling
DNFBob McCamish   Roseville, CA00:00:00.00 285998  332 Rio Strada Racing
DNFTimothy Spillane   Roseville, CA00:00:00.00 110134  344 Rio Strada Racing
DNFScott Hellam   Fresno, CA00:00:00.00 287510  329 Rubber Soul/csc Racing Team
DNFRick Berry   Kingsburg, CA00:00:00.00 271131  303 Rubber Soul/csc Racing Team
DNFShane Calkins   Gold River, CA00:00:00.00 254786  307 Team Bicycles Plus/sierra Neva
DNFJeff Sawyer   Rocklin, CA00:00:00.00 220240  342 Team Hammer Nutrition
DNFJohn Collins   Folsom, CA00:00:00.00 231774  312 Team Revolutions
DNFMichael Spady   San Mateo, CA00:00:00.00 287381  343 UC Davis
DNFReed Azevedo   Manteca, CA00:00:00.00 281782  300 William Cycling Team
DNFDavid Carlson   Sacramento, CA00:00:00.00 286490  308 Unattached
DNFCraig Dolley   El Dorado Hills, CA00:00:00.00 158073  318 Unattached
DNFAlexander Fuentes   Fairfield, CA00:00:00.00 219016  323 Unattached

Men - Cat 4/5 - Master - 35-99

 Place Points NameCity, StateTime USAC #BibTeam
1430.45Bob McCamish   Roseville, CA00:00:00.00 285998  429 Rio Strada Racing
2433.92Douglas Rowland   Davis, CA00:00:00.00 295966  441 Davis Bike Club
3437.39Matthew Davis   Reno, NV00:00:00.00 237845  412 Unattached
4440.86Daniel Tebbs   Auburn, CA00:00:00.00 90625  460 Victory Velo/proactive Persona
5444.32Joey McCrummen   Brentwood, CA00:00:00.00 23350  430 Taleo Racing
6447.79Stuart Humpert   Napa, CA00:00:00.00 197375  423 Ert
7451.26Kayden Kelly   Auburn, CA00:00:00.00 101369  424 Bicycle Emporium
8454.73K Scott Davis   Palo Alto, CA00:00:00.00 257793  413 Quadcycles
9458.20Mitch Boehs   Livingston, CA00:00:00.00 237309  403 Fun Sport Bikes Cycling Team
10461.67Javier Sanchez   Santa Rosa, CA00:00:00.00 31181  443 Team Norcal Bike Sports
11465.13Paul Malenke   Roseville, CA00:00:00.00 82738  428 Team Bicycles Plus/sierra Neva
12468.60Michael Lynch   Ripon, CA00:00:00.00 180322  456 Team Wm
13472.07Jeff Slaton   Davis, CA00:00:00.00 293126  445 Davis Bike Club
14475.54John Anner   Albany, CA00:00:00.00 303115  400 Berkeley Bicycle Club
15479.01Mike Nissen   Livermore, CA00:00:00.00 296024  455 Unattached
16482.48Ken Mederios (1 - Cat5)   Elk Grove, CA00:00:00.00 23888  458 Mad Cat
17485.95Jeffrey Weaver   Sacramento, CA00:00:00.00 290926  451 Davis Bike Club
18489.41Jeff Watson   Elk Grove, CA00:00:00.00 293136  450 Team Bicycles Plus Sierra Neva
19492.88Matt Connolly   Sacramento, CA00:00:00.00 302694  409 Rio Strada Racing
20496.35Timothy Spillane   Roseville, CA00:00:00.00 110134  446 Rio Strada Racing
21499.82Darron Sturgeon   Reno, NV00:00:00.00 286787  448 Reno Wheelmen
22503.29Thomas Luttrell   San Francisco, CA00:00:00.00 235966  426 Divine Electric Norcal
23506.76Derek Novaes   West Sacramento, CA00:00:00.00 274484  431 Rio Strada Racing
24510.23Dean Peckham (1 - Cat4)   Sacramento, CA00:00:00.00 159817  434 Unattached
25513.69Michael Cochran   Sacramento, CA00:00:00.00 297795  407 Bullseye - East Sac
26517.16Rick Berry   Kingsburg, CA00:00:00.00 271131  402 Rubber Soul/csc Racing Team
27520.63Aaron Phillips   Brentwood, CA00:00:00.00 273263  437 Williams Cycling
28Eric ZEIGLER   00:00:00.00  452 Unattached
29527.57Tobin Richardson   El Macero, CA00:00:00.00 306124  461 Davis Bike Club
30531.04Morgan Mahanke   El Dorado Hills, CA00:00:00.00 226577  427 Team Bicycles Plus/sierra Neva
31534.50Jeffrey Griffo   Homewood, CA00:00:00.00 180137  419 Truckee Bicycle Team
32537.97Jeff Sawyer   Rocklin, CA00:00:00.00 220240  444 Team Hammer Nutrition
33541.44Reed Azevedo (2 - Cat4)   Manteca, CA00:00:00.00 281782  401 William Cycling Team
34544.91Gary Land   Santa Rosa, CA00:00:00.00 181093  425 Team Beer
35548.38Roger Steuble   Jackson, CA00:00:00.00 305013  447 Team Revolutions
36551.85Erim Taser   Lodi, CA00:00:00.00 205116  454 Delta Velo
37555.32Daniel Pollard   Roseville, CA00:00:00.00 269166  438 Team Mad Cat
38558.78ron faulk   Placerville, CA00:00:00.00 254588  416 Na
39562.25Robert Fuller   Lodi, CA00:00:00.00 12523  418 Williams Cycling-delta Velo
40565.72Jason Cooke (2 - Cat5)   Danville, CA00:00:00.00 266237  410 Forward Motion Race Club
41569.19Patrick Cashell   Reno, NV00:00:00.00 305317  406 Unattached
42572.66Hector Sanchez (3 - Cat5)   Sacramento, CA00:00:00.00 305737  442 Unattached
43576.13Sean Odom   Carmichael, CA00:00:00.00 223061  433 Rio Strada Racing
44579.59James Cotta   Lodi, CA00:00:00.00 282175  411 Delta Velo/ Williams Cycling
45583.06Jerrold Garrard   Auburn, CA00:00:00.00 72271  459 Victory Velo/proactive Persona
46586.53Greg Tripoli   Hanford, CA00:00:00.00 281420  449 Rubber Soul/csc Racing Team
48590.00Jonathan Pettengill   Reno, NV00:00:00.00 287637  436 Lenovo
DNFOscar Nunez   Menlo Park, CA00:00:00.00 220085  432 BBC
DNFKen Hill   Woodland, CA00:00:00.00 274292  422 Davis Bike Club
DNFMatthew Esselstrom   Modesto, CA00:00:00.00 277510  415 Fun Sport Bikes Cycling Team
DNFTrevor Cadogan   Roseville, CA00:00:00.00 284507  404 Rio Strada Racing
DNFDavid Haslemann   Folsom, CA00:00:00.00 277664  420 Rio Strada Racing
DNFScott Hellam   Fresno, CA00:00:00.00 287510  421 Rubber Soul/csc Racing Team
DNFGregg Roh   Sacramento, CA00:00:00.00 58416  440 Sac Golden Wheelmen
DNFPaul Ryan   San Ramon, CA00:00:00.00 112814  453 Taleo Racing
DNFShane Calkins   Gold River, CA00:00:00.00 254786  405 Team Bicycles Plus/sierra Neva
DNFTim Fehon   San Francisco, CA00:00:00.00 263093  417 Team Norcal Bikesport
DNFJohn Collins   Folsom, CA00:00:00.00 231774  408 Team Revolutions
DNFCraig Dolley   El Dorado Hills, CA00:00:00.00 158073  414 Unattached
DNFPatrick Peters   Davis, CA00:00:00.00 303960  435 Unattached
DNFBrian Priddin   El Dorado, CA00:00:00.00 178247  439 Unattached

Men - Cat 5

 Place Points NameCity, StateTime USAC #BibTeam
1540.00Javier Sanchez   Santa Rosa, CA00:00:00.00 31181  553 Team Norcal Sports
2Andrew TIGHT   00:00:00.00  543 Unattached
3542.27Miles Stepto   San Francisco00:00:00.00 299942  558 Team Roaring Mouse
4543.41clay dossa   Auburn, CA00:00:00.00 303734  511 Victory Velo
5Ryan MOORE   00:00:00.00  556 Powerpups.com
6Joe DICKERSON   00:00:00.00  550 Unattached
7546.82Byron Anson   West Sacramento, CA00:00:00.00 304735  501 Davis Bike Club
8547.95Charles Potts   Reno, NV00:00:00.00 291533  552 Unattached
9549.09Justin Abbott   Pleasant Hill, CA00:00:00.00 156336  557 Powerpups.com
10550.23Brandon Zipp   Davis, CA00:00:00.00 254814  548 Unattached
11551.36Ken Hill   Woodland, CA00:00:00.00 274292  518 Davis Bike Club
12552.50Seth Callahan   Sanfrancisco, CA00:00:00.00 304160  561 Team Roaring Mouse
13553.64Tyler Swartz   San Francisco, CA00:00:00.00 304004  559 Team Roaring Mouse
14554.77Alexander Kizis   Reno, NV00:00:00.00 273691  524 Atlantis
15555.91Zachary Recine   Lone Tree, CO00:00:00.00 301212  535 Unattached
16557.05Kirk Evans   Sacramento, CA00:00:00.00 259534  514 Ikon Cycles Race Team
17558.18Aaron Branham   Henderson, NV00:00:00.00 305878  503 Unattached
18559.32Ned Britten   Clayton, CA00:00:00.00 304964  504 Unattached
19560.45Dominic Lamarche   Davis, CA00:00:00.00 291169  525 Unattached
20561.59Reid Weber   Reno, NV00:00:00.00 305011  546 Unattached
21562.73Alexander Neigher   Davis, CA00:00:00.00 304595  532 Unattached
22563.86Till Stegers   Los Angeles, CA00:00:00.00 303941  541 Davis Bike Club
23565.00Chris Dufour   Pleasanton, CA00:00:00.00 302616  513 Taleo Racing
24566.14Eric Aguilera   Carson City, NV00:00:00.00 293392  500 Alta Alpina Cycling Club
25567.27Sage Bauers   Sacramento, CA00:00:00.00 257738  549 Unattached
26568.41Drew Marquiss   Davis, CA00:00:00.00 304749  528 Unattached
27569.55Michael Anderson   Rocklin, CA00:00:00.00 306726  560 Unattached
28570.68Jason Cooke   Danville, CA00:00:00.00 266237  508 Forward Motion Race Club
29571.82Eddie Sahyoun   Rocklin, CA00:00:00.00 291352  536 Unattached
30572.95joseph lee   Fremont, CA00:00:00.00 286694  526 Unattached
31574.09Joshua Lewis   Roseville, CA00:00:00.00 302680  551 Unattached
32575.23sean millerick   Santa Rosa, CA00:00:00.00 306534  531 Echeloncycle.com
33576.36John Caffrey   Davis, CA00:00:00.00 306207  505 Unattached
34577.50Robert Smith   Gold River , CA00:00:00.00 299828  540 Rio Strada Racing
35578.64Josh Sharp   Elverta, CA00:00:00.00 296453  539 Unattached
36579.77Mark Santillan   Fairfield, CA00:00:00.00 306635  537 Unattached
37580.91Sean Crawford   Davis, CA00:00:00.00 304550  509 Unattached
38582.05Christopher Ng   San Francisco, CA00:00:00.00 304753  533 Unattached
39583.18Maoz Friedman   Davis, CA00:00:00.00 306215  515 Unattached
40584.32Brad Yeargain   Sacramento, CA00:00:00.00 39191  547 Unattached
41585.45Zachary Davis   Davis, CA00:00:00.00 304736  510 Unattached
42586.59Scott Waters   Reno, NV00:00:00.00 298411  545 Unattached
43Mike MUNOZ   00:00:00.00  555 Unattached
44588.86Ross Drummond   Sacramento, CA00:00:00.00 270934  554 Davis Bike Club
45590.00Chris Hilscher   Folsom, CA00:00:00.00 306630  519 Unattached
DNFChris Martinez   Hercules, CA00:00:00.00 279813  529 Berkeley Bicycle Club
DNFNick LUKER   00:00:00.00  527 Cal Aggie Cyclists
DNFCarson Jeffres   Woodland, CA00:00:00.00 17726  520 Davis Bike Club
DNFgrayson golden   Orinda, CA00:00:00.00 289594  517 Davis Bike Club
DNFJosh Keel   Morgan Hill, CA00:00:00.00 194966  522 Rio Strada Racing
DNFDavid Mehl   El Dorado Hills, CA00:00:00.00 290396  530 Team Kinetic Cycles
DNFBruce Tworek   Fair Oaks, CA00:00:00.00 295114  544 Team Revolutions
DNFJohn Becker   Sanfrancisco, CA00:00:00.00 284814  502 Team Roaring Mouse
DNFMarco Carvajal   San Francisco, CA00:00:00.00 305357  506 Unattached
DNFJason Cook   Davis, CA00:00:00.00 304502  507 Unattached
DNFRyan DOYLE   00:00:00.00  512 Unattached
DNFKeith GIBSON   00:00:00.00  516 Unattached
DNFTony Joo   Union City, CA00:00:00.00 299170  521 Unattached
DNFJordan Kieschnick   Paloalto, CA00:00:00.00 305721  523 Unattached
DNFNate Pearson   Reno, NV00:00:00.00 304845  534 Unattached
DNFJosef Schildbach   Davis, CA00:00:00.00 305200  538 Unattached
DNFDmitry Stupakov   Davis, CA00:00:00.00 287792  542 Unattached

Men - Junior - 10-18

 Place Points NameCity, StateTime USAC #BibTeam
1411.73Cody Tapley   Citrus Heights, CA00:00:00.00 234610  604 Davis Bike Club
2428.97Johnny Mullane   Watsonville, CA00:00:00.00 281204  609 Davis Bike CLub
3446.20AJ Snovel   Sacramento, CA00:00:00.00 272559  602 Davis Bike Club
4463.44Garrett Hankins   Carmichael, CA00:00:00.00 298571  600 Team City
5480.68Robert Terra   Lodi, CA00:00:00.00 269793  605 Junior Elite Talent Squad
6Casey NORTH   00:00:00.00  606 Unattached
7515.15Ramona Sovereign   Sacramento, CA00:00:00.00 286346  603 Kinetic Cycles
8532.39Benjamin Binder   Lodi, CA00:00:00.00 306714  607 Rocket Sports
9Evan SHORTER   00:00:00.00  608 Unattached
DNSKatherine Pollard   Los Angles, CA00:00:00.00 256535  601 Team Mad Cat

Women - Cat 1/2/3

 Place Points NameCity, StateTime USAC #BibTeam
1351.60Emily Kachorek (1 - Cat1)   Sacramento, CA00:00:00.00 167636  659 Wells Fargo Racing Team
2376.99Amy Chandos   Flagstaff, AZ00:00:00.00 256409  651 Cal Aggie Cycling
3402.39Cody Graf (1 - Cat2)   Sacramento, CA00:00:00.00 248416  653 Wells Fargo Racing Team
4427.78Elizabeth Newell   Oakland, CA00:00:00.00 252152  714 Veritas
5453.17Larissa Fitchett (2 - Cat2)   Silverado, CA00:00:00.00 274696  666 Davis Bike Club
6478.56Lisa Auchincloss   Auburn, CA00:00:00.00 214335  650 Unattached
7503.96Danielle Haulman   Davis, CA00:00:00.00 181367  658 
8529.35Emily Foxman   Mountain View, CA00:00:00.00 255430  652 SJBC
9554.74Kimberley Payne (1 - Cat3)   Campbell, CA00:00:00.00 51589  655 Team Ohana Sport
10580.13Kimberly Fong   Berkeley, CA00:00:00.00 238713  715 Unattached
DNFDanielle Haulman   Davis, CA00:00:00.00 181367  654 
DNFJosephine Morgan   Oakland, CA00:00:00.00 242553  657 SJBC

Women - Cat 4

 Place Points NameCity, StateTime USAC #BibTeam
1505.83Karianne Burns   Berkeley, CA00:00:00.00 305010  701 Davis Bike Club
2515.18Amber Broch   Reno, NV00:00:00.00 202496  707 Unattached
3524.53Rebekah Rottenberg   Davis, CA00:00:00.00 288266  713 UC Davis
4533.89Rachel Kerwin   Davis, CA00:00:00.00 305008  711 UC Davis
5543.24Ruth Anderson   Davis, CA00:00:00.00 222727  709 Davis Bike Club
6552.59Maryann Schrupp   Reno, NV00:00:00.00 288460  705 Lenovo
7561.94Jamii North   Portola Valley, CA00:00:00.00 219869  703 Ohana Sport
8571.30Ramona Sovereign   Sacramento, CA00:00:00.00 286346  706 Kinetic Cycles
9580.65Pamela Spencer   Sacramento, CA00:00:00.00 305466  708 Revo
10Amanda NUECHTERLEIN   00:00:00.00  712 UC Davis
DNSKatherine Pollard   Los Angles, CA00:00:00.00 256535  704 Team Mad Cat
DNFJordan Applegarth   Davis, CA00:00:00.00 305273  710 UC Davis

Report missing or incorrect license numbers

Volkswagen
Bonk BreakerSierra NevadaUSACDFSpyShimanoCUORE
UCI USA Cycling is the official governing body for all disciplines of competitive cycling in the United States. The 501c3, membership-based organization aims both to achieve sustained success in international cycling competition and to grow competitive cycling in America while delivering an exceptional customer experience.
View Children's Online Privacy Protection Policy
US Olympic Committee